Regional Weather Roundup
Issued by NWS Newport/Morehead, NC

Current Version | Previous Version | Graphics & Text | Print | Product List | Glossary On
Versions: 1 2 3 4 5 6 7 8 9 10 11 12 13 14 15 16 17 18 19 20 21 22 23 24 25 26 27 28 29 30 31 32 33 34 35 36 37 38 39 40 41 42 43 44 45 46 47 48 49 50
000 ASUS42 KMHX 230425 RWRMHX WEATHER ROUNDUP FOR EASTERN NORTH CAROLINA NATIONAL WEATHER SERVICE NEWPORT/MOREHEAD CITY NC 1200 AM EDT SAT SEP 23 2017 NOTE: "FAIR" INDICATES FEW OR NO CLOUDS BELOW 12,000 FEET WITH NO SIGNIFICANT WEATHER AND/OR OBSTRUCTIONS TO VISIBILITY NCZ015>017-031-032-045>047-102-103-230500- NORTH COAST CITY SKY/WX TMP DP RH WIND PRES REMARKS EDENTON CLEAR 70 67 92 CALM 30.02S ELIZABETH CITY CLEAR 67 67 100 CALM 30.01S FOG KITTY HAWK CLEAR 69 66 89 CALM 30.00S MANTEO PTCLDY 67 66 97 CALM 30.02S $$ NCZ045>047-081-094-103-104-230500- CENTRAL COAST CITY SKY/WX TMP DP RH WIND PRES REMARKS FRISCO PTCLDY 72 71 97 W3 30.01S $$ NCZ095-097-098-100-101-230500- SOUTHERN COAST CITY SKY/WX TMP DP RH WIND PRES REMARKS BEAUFORT CLEAR 76 72 87 SW7 30.01S CEDAR ISLAND NOT AVBL JACKSONVILLE CLEAR 69 69 100 CALM 30.01R PINEY ISLAND N/A N/A N/A N/A SW6 30.00S WILMINGTON CLEAR 71 70 96 CALM 30.01S $$ NCZ011>013-027>030-043-044-078>080-089-090>093-098-230500- COASTAL PLAIN CITY SKY/WX TMP DP RH WIND PRES REMARKS AHOSKIE CLEAR 64 64 100 CALM 30.02F CLINTON PTCLDY 69 69 99 CALM 30.02S ELIZABETHTOWN NOT AVBL GOLDSBORO CLEAR 70 70 100 CALM 29.99S GREENVILLE CLEAR 68 68 100 CALM 30.03S FOG HAVELOCK CLEAR 72 71 97 SW3 30.02R KENANSVILLE CLEAR 66 66 100 CALM 30.01S KINSTON PTCLDY 69 66 92 CALM 30.02R NEW BERN CLEAR 71 70 96 SW5 30.02R RICHLANDS CLEAR 67 66 97 CALM 30.02S ROCKY MOUNT CLEAR 67 67 100 CALM 30.02S WASHINGTON CLEAR 69 67 93 N3 30.01S WHITEVILLE CLEAR 70 69 97 CALM 30.02R $$ AMZ130-135-150-152-154-156-158-170-250-252-270-ANZ085-086-088-633-658-670-230500- MARINE OBSERVATIONS STATION/POSITION TIME TEMP WIND PRES WAVE SWELL AIR SEA DIR/SP/G HT/PER HT/PER (UTC) (F) (DEG/KT/KT) (MB) (FT/S) (FT/S) CHESAPEAKE LIGHT NOT AVBL 64 E VA BEACH 0350 70 70 260/ 6/ 8 1015.8 8/11 8/11 DUCK 0400 73 76 190/ 5/ 5 1015.7 2 E DUCK 0300 76 N/A 5/12 3/12 OREGON INLET 0400 73 79 110/ 2/ 2 1016.1 13E OREGON INLT 0348 75 N/A 7/11 7/11 HATTERAS CG 0400 76 79 240/ 3/ 4 1016.1 DIAMOND BUOY 0350 77 77 280/ 2/ 4 1016.1 6/11 7/11 CAPE LOOKOUT 0400 77 210/ 4/ 6 1015.9 BEAUFORT LAB 0400 78 77 220/ 3/ 6 1015.6 30 SE NEW RVR IN 0408 80 190/ 4/ 6 1015.9 30 SE NEW RVR IN NOT AVBL 27 SE WRIGHTSVLE 0408 80 80 130/ 4/ 8 1016.0 5 SE WRIGHTSVLE 0308 78 79 220/ 4/ 8 1015.9 225 S CAPE HAT 0350 79 80 60/ 12/ 16 1015.2 10/12 10/12 41 SE CHARLESTON 0410 81 82 90/ 10/ 16 1014.8 $$

USA.gov is the U.S. government's official web portal to all federal, state and local government web resources and services.